Tracking 33057 objects as of 23-Jan-2026
HD Live streaming from Space Station
objects crossing your sky now

STARLINK-31122

Track STARLINK-31122 now!
10-day predictions
STARLINK-31122 is classified as:


NORAD ID: 58774
Int'l Code: 2024-011K
Perigee: 481.6 km
Apogee: 483.3 km
Inclination: 53.2 °
Period: 94.1 minutes
Semi major axis: 6853 km
RCS: Unknown
Launch date: January 14, 2024
Source: United States (US)
Launch site: AIR FORCE WESTERN TEST RANGE (AFWTR)
Your satellite tracking list
Your tracking list is empty




NASA's NSSDC Master Catalog

Two Line Element Set (TLE):
1 58774U 24011K   26022.54676639  .00003554  00000-0  13217-3 0  9991
2 58774  53.1581 228.1393 0001263  82.9387 277.1757 15.30169258113206
Source of the keplerian elements: AFSPC